CST,Max TemperatureF,Mean TemperatureF,Min TemperatureF,Max Dew PointF,MeanDew PointF,Min DewpointF,Max Humidity, Mean Humidity, Min Humidity, Max Sea Level PressureIn, Mean Sea Level PressureIn, Min Sea Level PressureIn, Max VisibilityMiles, Mean VisibilityMiles, Min VisibilityMiles, Max Wind SpeedMPH, Mean Wind SpeedMPH, Max Gust SpeedMPH,PrecipitationIn, CloudCover, Events, WindDirDegrees
2013-1-1,37,34,32,37,34,28,100,97,87,30.30,30.14,30.05,10,6,0,13,5,,0.00,8,Fog-Rain,335
2013-1-2,42,34,26,30,29,25,100,89,61,30.32,30.30,30.24,10,9,7,9,8,,0.00,0,,339
2013-1-3,46,34,23,32,26,23,100,88,50,30.48,30.39,30.33,10,10,7,9,6,,0.00,0,,340
2013-1-4,48,39,30,32,29,25,86,77,50,30.52,30.42,30.34,10,10,10,8,1,,0.00,0,,185
2013-1-5,42,35,28,37,33,27,100,86,76,30.35,30.31,30.29,10,10,4,14,6,21,0.00,6,,181
2013-1-6,33,28,23,32,27,23,100,88,80,30.37,30.33,30.30,10,10,2,16,8,,0.00,0,,343
2013-1-7,53,36,19,32,23,18,100,90,41,30.35,30.27,30.10,10,10,10,10,1,,0.00,0,,117
2013-1-8,48,42,35,48,35,32,100,85,70,30.14,30.10,30.01,10,9,3,7,2,,0.01,8,Rain,105
2013-1-9,53,50,46,54,49,46,100,100,100,30.16,30.12,30.06,10,7,3,12,7,17,0.02,,Rain,45
2013-1-10,59,54,48,59,53,46,100,98,87,30.05,29.95,29.87,10,7,3,13,9,17,0.05,3,Rain,135
2013-1-11,69,56,44,55,47,43,100,90,49,29.91,29.86,29.73,10,10,10,14,6,22,0.00,0,,163
2013-1-12,60,46,32,59,48,27,100,86,44,30.01,29.85,29.80,10,8,3,20,4,24,0.01,6,Rain,346
2013-1-13,37,30,24,27,23,19,80,75,48,30.35,30.12,30.00,10,10,10,17,12,25,0.00,3,,354
2013-1-14,42,32,23,21,19,16,86,72,34,30.35,30.31,30.26,10,10,10,13,6,17,0.00,0,,12
2013-1-15,37,30,24,23,21,19,80,77,56,30.27,30.25,30.19,10,10,10,13,7,,0.00,1,,4
2013-1-16,48,34,19,27,20,14,93,76,32,30.23,30.22,30.14,10,10,10,12,6,17,0.00,0,,331
2013-1-17,30,27,24,28,25,23,93,90,86,30.51,30.32,30.24,10,10,10,4,0,,0.00,0,,290
2013-1-18,62,43,24,34,28,23,100,87,32,30.51,30.42,30.24,10,10,10,12,1,17,0.00,0,,161
2013-1-19,66,48,30,39,32,28,100,89,35,30.23,30.21,30.10,10,10,10,8,2,,0.00,0,,114
2013-1-20,59,44,30,50,33,28,100,95,72,30.22,30.20,30.15,10,9,2,12,1,,0.00,0,,5
2013-1-21,50,41,32,39,26,21,76,62,35,30.30,30.25,30.18,10,10,10,16,11,23,0.00,0,,15
2013-1-22,62,43,24,41,27,19,93,73,42,30.30,30.25,30.18,10,10,10,6,1,,0.00,1,,115
2013-1-23,53,44,35,52,40,34,94,92,87,30.23,30.20,30.13,10,10,10,7,4,,0.00,0,,96
2013-1-24,62,52,41,54,46,41,100,95,72,30.19,30.12,30.07,10,4,0,15,4,,0.00,6,Fog,43
2013-1-25,42,38,35,37,35,34,100,90,76,30.23,30.13,30.08,10,6,2,15,8,20,0.00,6,,358
2013-1-26,44,40,35,45,37,32,100,92,87,30.22,30.18,30.09,10,7,2,9,3,,0.00,5,,74
2013-1-27,68,56,44,63,49,45,100,96,73,30.10,30.02,29.90,10,4,0,17,9,22,0.00,6,Fog,146
2013-1-28,75,68,62,64,63,61,94,87,69,29.98,29.91,29.78,10,10,10,17,10,25,0.00,5,,186
2013-1-29,71,60,46,64,56,34,83,75,54,29.80,29.70,29.59,10,10,10,17,14,25,0.00,4,,195
2013-1-30,48,38,26,43,34,23,100,81,46,30.10,29.81,29.64,10,10,10,23,12,29,0.00,5,,318
2013-1-31,64,44,23,30,25,19,100,83,22,30.39,30.15,30.08,10,10,10,16,2,20,0.00,0,,26